[[{"header":{"parameterUnit":"m.s-1","parameterCategory":1,"la1":30.2991,"la2":30.254,"lo1":-89.0895,"lo2":-89.0444,"dy":0.0017,"dx":0.0017,"nx":28,"ny":28,"refTime":"2024-08-25T03:00:00:Z","depth":0,"parameterNumber":2,"parameterNumberName":"U-component_of_WINDS"},"data":[0,0,0,0,0,0,0,0,0,0,0,0,0,0,0,0,0,0,0,0,0,0,0,0,0,0,0,0,0,0,0,0,0,0,0,0,0,0,0,0,0,0,0,0,0,0,0,0,0,0,0,0,0,0,0,0,0,0,-3.8472,-3.8472,0,-3.8488,-3.8489,-3.8489,-3.8348,-3.8344,-3.834,-3.8336,-3.8353,-3.8357,-3.8361,0,0,0,0,0,0,0,0,0,0,0,0,0,-3.8317,-3.8321,-3.8472,-3.8472,-3.8472,-3.8488,-3.8489,-3.8489,-3.8348,-3.8343,-3.8339,-3.8334,-3.8352,-3.8357,-3.8362,0,0,0,0,0,0,0,0,0,0,0,0,0,-3.8364,-3.8322,-3.8472,-3.8404,-3.8398,-3.8488,-3.8489,-3.8489,-3.8349,-3.8343,-3.8337,-3.8332,-3.835,-3.8356,-3.8362,-3.8518,0,0,-3.8381,-3.8384,0,0,0,0,0,0,0,0,-3.8362,-3.837,-3.8414,-3.8409,-3.8402,-3.841,-3.844,-3.8499,-3.8351,-3.8368,-3.8336,-3.8329,-3.8377,-3.838,-3.8396,-3.8519,-3.852,-3.8382,-3.8385,-3.8388,-3.839,0,0,0,0,0,0,0,-3.8358,-3.8368,-3.8478,-3.8414,-3.8408,-3.8372,-3.8372,-3.8451,-3.8405,-3.8366,-3.8356,-3.836,-3.8372,-3.8391,-3.8396,-3.852,-3.8381,-3.8387,-3.8391,-3.8393,-3.877,-3.8776,0,0,0,0,0,0,-3.8364,-3.8367,-3.8478,-3.8479,-3.8367,-3.838,-3.838,-3.8413,-3.8404,-3.8397,-3.8365,-3.8353,-3.8383,-3.8389,-3.8396,-3.8576,-3.8388,-3.8394,-3.8397,-3.8763,-3.8771,-3.8778,0,0,0,0,0,0,-3.8362,-3.8376,-3.8477,-3.842,-3.843,-3.8389,-3.8427,-3.8417,-3.8435,-3.8403,-3.8394,-3.8392,-3.8379,-3.8387,-3.8488,-3.8575,-3.8397,-3.8402,-3.8756,-3.8766,-3.8775,-3.894,0,0,0,0,0,0,-3.8358,-3.8376,-3.8435,-3.8422,-3.8434,-3.857,-3.8433,-3.8421,-3.8446,-3.8431,-3.8426,-3.8419,-3.8375,-3.848,-3.8495,-3.858,-3.8407,-3.8748,-3.876,-3.8772,-3.8927,-3.8954,-3.8978,0,0,0,0,0,-3.8353,-3.8481,-3.8438,-3.8453,-3.8507,-3.8575,-3.8582,-3.8528,-3.8454,-3.8512,-3.8491,-3.842,-3.8564,-3.8492,-3.8507,-3.8596,-3.8742,-3.8757,-3.8771,-3.8915,-3.8949,-3.8977,0,0,0,0,0,0,-3.8505,-3.8478,-3.8431,-3.8559,-3.8571,-3.8551,-3.8624,-3.8565,-3.8598,-3.8583,-3.8514,-3.8514,-3.8627,-3.8621,-3.8542,-3.8745,-3.864,-3.8658,-3.8745,-3.8776,-3.8801,-3.8799,-3.8412,0,0,0,0,0,-3.8553,-3.8612,-3.8585,-3.8701,-3.8709,-3.8666,-3.8694,-3.8651,-3.866,-3.8664,-3.8651,-3.8663,-3.871,-3.8743,-3.8785,-3.8926,-3.8922,-3.8994,-3.902,-3.9041,-3.9057,-3.9129,-3.9161,-3.8824,-3.8824,-3.8824,0,0,-3.8654,-3.8647,-3.8688,-3.8731,-3.8735,-3.8796,-3.8671,-3.8741,-3.8786,-3.8675,-3.8769,-3.876,-3.8769,-3.889,-3.8943,-3.8889,-3.9149,-3.9059,-3.9076,-3.908,-3.9147,-3.9179,-3.9207,-3.8834,-3.8832,-3.8831,0,0,-3.8868,-3.8869,-3.8965,-3.8971,-3.8979,-3.8949,-3.8973,-3.8963,-3.8952,-3.9046,-3.8964,-3.9016,-3.9099,-3.9108,-3.9124,-3.9341,-3.9276,-3.9357,-3.9489,-3.9561,-3.9587,-3.961,-3.9687,-3.9715,-3.9373,-3.9374,-3.9374,0,-3.8992,-3.9081,-3.9021,-3.9097,-3.9118,-3.9021,-3.9116,-3.9126,-3.9147,-3.9163,-3.9103,-3.9205,-3.9204,-3.9326,-3.9379,-3.9395,-3.9418,-3.9357,-3.9588,-3.9611,-3.9632,-3.9703,-3.9733,-3.9383,-3.9382,-3.9381,-3.938,0,-3.9233,-3.9296,-3.9372,-3.9395,-3.9424,-3.951,-3.9462,-3.95,-3.9455,-3.9431,-3.9528,-3.9523,-3.9562,-3.9588,-3.9544,-3.9703,-3.9669,-3.96,-3.9492,-3.9674,-3.9741,-3.9768,-3.9397,-3.9394,-3.9391,-3.9388,0,0,-3.9543,-3.9531,-3.956,-3.9568,-3.9569,-3.9617,-3.9698,-3.9735,-3.9768,-3.9786,-3.9851,-3.9924,-3.986,-3.9878,-3.9835,-3.9898,-4.0069,-3.982,-3.9819,-3.9865,-4.0241,-4.0293,-4.0326,-4.0026,-4.0031,-4.0035,-4.024,0,-3.9751,-3.9888,-3.9836,-3.9977,-4.0034,-3.9942,-4.0012,-4.002,-4.0001,-4.0046,-4.0024,-4.0076,-3.9988,-3.9998,-4.0056,-4.0036,-4.0143,-4.002,-4.0085,-4.0088,-4.0085,-4.0361,-4.0415,-4.0609,-4.0266,-4.027,-4.0274,0,-4.0012,-4.004,-4.0186,-4.0176,-4.0198,-4.0262,-4.0292,-4.0336,-4.0343,-4.0325,-4.0345,-4.0288,-4.0365,-4.0259,-4.0365,-4.0283,-4.0306,-4.03,-4.0306,-4.0309,-4.0191,-4.037,-4.067,-4.0699,-4.0314,-4.0311,-4.0308,0,-4.0222,-4.0296,-4.0393,-4.0403,-4.0394,-4.0441,-4.044,-4.0441,-4.0466,-4.0493,-4.0508,-4.0544,-4.0563,-4.0592,-4.0546,-4.0473,-4.0658,-4.0548,-4.0644,-4.0645,-4.0686,-4.0684,-4.0993,-4.0704,-4.0704,-4.0703,-4.0702,0,-4.0458,-4.0551,-4.0487,-4.0546,-4.0647,-4.0587,-4.0688,-4.0677,-4.0678,-4.0734,-4.0657,-4.071,-4.0646,-4.0694,-4.0658,-4.0751,-4.0761,-4.0747,-4.0736,-4.0753,-4.0755,-4.0767,-4.0752,-4.0711,-4.0709,-4.0707,-4.0706,0,-4.071,-4.067,-4.0769,-4.0753,-4.0751,-4.0826,-4.0811,-4.0865,-4.084,-4.0911,-4.0924,-4.0885,-4.0937,-4.0894,-4.0944,-4.092,-4.1043,-4.1013,-4.104,-4.1032,-4.113,-4.1121,-4.1457,-4.1497,-4.1183,-4.1186,-4.1189,0,-4.0863,-4.0932,-4.0923,-4.0954,-4.0957,-4.1009,-4.1034,-4.0977,-4.1007,-4.102,-4.1073,-4.1118,-4.115,-4.1237,-4.1213,-4.1251,-4.1221,-4.1336,-4.1226,-4.1241,-4.1221,-4.1217,-4.1223,-4.1358,-4.1362,-4.1365,-4.1368,0,-4.1138,-4.1115,-4.1155,-4.1189,-4.1221,-4.1245,-4.1262,-4.1292,-4.1234,-4.1271,-4.1323,-4.1348,-4.1399,-4.1445,-4.1475,-4.1472,-4.1411,-4.1403,-4.1426,-4.1444,-4.1456,-4.145,-4.11,-4.1395,-4.1392,-4.139,-4.1389,-4.1387,-4.1344,-4.1401,-4.1403,-4.145,-4.1457,-4.1474,-4.1524,-4.1505,-4.1547,-4.1584,-4.1548,-4.161,-4.1614,-4.1648,-4.1653,-4.1701,-4.1653,-4.1688,-4.1697,-4.1706,-4.172,-4.145,-4.1706,-4.1706,-4.1705,-4.1704,-4.1703,0,-4.1614,-4.1611,-4.1655,-4.1681,-4.1718,-4.1656,-4.1672,-4.1707,-4.1763,-4.1772,-4.1806,-4.1865,-4.1908,-4.1888,-4.1926,-4.1968,-4.194,-4.198,-4.1975,-4.1976,-4.1761,-4.1736,-4.2001,-4.2001,-4.2001,-4.2001,-4.2001,-4.2001,-4.1759,-4.1852,-4.1829,-4.1924,-4.1919,-4.1979,-4.1994,-4.201,-4.2016,-4.2086,-4.2121,-4.2107,-4.2105,-4.2141,-4.2178,-4.2171,-4.2188,-4.2238,-4.222,-4.202,-4.1991,-4.1963,-4.1939,-4.2242,-4.2243,-4.243,-4.2432,-4.2434]},{"header":{"parameterUnit":"m.s-1","parameterCategory":1,"la1":30.2991,"la2":30.254,"lo1":-89.0895,"lo2":-89.0444,"dy":0.0017,"dx":0.0017,"nx":28,"ny":28,"refTime":"2024-08-25T03:00:00:Z","depth":0,"parameterNumber":3,"parameterNumberName":"V-component_of_WINDS"},"data":[0,0,0,0,0,0,0,0,0,0,0,0,0,0,0,0,0,0,0,0,0,0,0,0,0,0,0,0,0,0,0,0,0,0,0,0,0,0,0,0,0,0,0,0,0,0,0,0,0,0,0,0,0,0,0,0,0,0,0.0964,0.0964,0,0.0931,0.0931,0.093,0.0874,0.0873,0.0871,0.087,0.0837,0.0837,0.0837,0,0,0,0,0,0,0,0,0,0,0,0,0,0.0978,0.0978,0.0964,0.0963,0.0963,0.0931,0.0931,0.093,0.0874,0.0872,0.0871,0.087,0.0837,0.0837,0.0837,0,0,0,0,0,0,0,0,0,0,0,0,0,0.0961,0.0978,0.0964,0.0931,0.0928,0.0931,0.0931,0.093,0.0874,0.0872,0.0871,0.0869,0.0837,0.0837,0.0837,0.087,0,0,0.0838,0.0838,0,0,0,0,0,0,0,0,0.0962,0.0961,0.0936,0.0933,0.093,0.0905,0.0923,0.091,0.0874,0.0894,0.087,0.0869,0.0861,0.0859,0.0856,0.0869,0.0867,0.0838,0.0838,0.0838,0.0838,0,0,0,0,0,0,0,0.0964,0.0962,0.0951,0.0936,0.0932,0.0918,0.0914,0.0921,0.0887,0.0893,0.0888,0.0885,0.0859,0.0856,0.0855,0.0867,0.0838,0.0838,0.0838,0.0838,0.0906,0.0907,0,0,0,0,0,0,0.097,0.0963,0.0952,0.095,0.0942,0.0919,0.0915,0.0914,0.0887,0.0881,0.0887,0.0883,0.0857,0.0855,0.0854,0.0891,0.0838,0.0838,0.0838,0.0904,0.0906,0.0908,0,0,0,0,0,0,0.097,0.0969,0.0953,0.0956,0.0952,0.0921,0.0921,0.0915,0.0912,0.0882,0.0876,0.089,0.0855,0.0853,0.0867,0.0889,0.0838,0.0838,0.0902,0.0905,0.0907,0.0966,0,0,0,0,0,0,0.0971,0.097,0.0982,0.0956,0.0953,0.0967,0.0922,0.0915,0.0913,0.0907,0.0884,0.0879,0.0854,0.0867,0.0867,0.0888,0.0838,0.09,0.0903,0.0906,0.0962,0.097,0.0977,0,0,0,0,0,0.0971,0.0999,0.0983,0.0981,0.0967,0.0968,0.0966,0.0937,0.0915,0.0927,0.0908,0.088,0.0887,0.0869,0.0868,0.089,0.0898,0.0902,0.0906,0.0958,0.0968,0.0977,0,0,0,0,0,0,0.1028,0.0995,0.0976,0.0997,0.0986,0.0959,0.0973,0.0949,0.0944,0.0939,0.0903,0.0898,0.0917,0.0905,0.0885,0.0921,0.0888,0.0892,0.0928,0.0938,0.0945,0.0947,0.0838,0,0,0,0,0,0.1043,0.1047,0.1018,0.1039,0.1034,0.1005,0.1004,0.0983,0.097,0.0965,0.0947,0.0936,0.0935,0.0936,0.0934,0.096,0.0954,0.0975,0.0983,0.0989,0.0993,0.1006,0.1015,0.092,0.092,0.092,0,0,0.1074,0.1056,0.1061,0.105,0.1039,0.1044,0.1001,0.1008,0.1011,0.0966,0.0977,0.0964,0.0949,0.0969,0.0977,0.096,0.1018,0.0994,0.0999,0.0999,0.1011,0.102,0.1028,0.0923,0.0922,0.0922,0,0,0.1132,0.1119,0.1135,0.1125,0.1109,0.109,0.1094,0.107,0.106,0.1071,0.1037,0.1041,0.1041,0.1032,0.1027,0.1084,0.1058,0.1084,0.1124,0.1138,0.1146,0.1152,0.1172,0.118,0.1088,0.1088,0.1088,0,0.1172,0.1178,0.1147,0.1156,0.1152,0.1112,0.1128,0.112,0.1105,0.1103,0.1084,0.1084,0.1071,0.1089,0.1103,0.11,0.1104,0.1086,0.1147,0.1153,0.1159,0.1178,0.1186,0.1092,0.1091,0.1091,0.1091,0,0.1228,0.1233,0.1248,0.1234,0.1232,0.1245,0.1216,0.1218,0.1198,0.118,0.1192,0.1176,0.117,0.1173,0.1152,0.1188,0.1178,0.1154,0.112,0.1172,0.1189,0.1196,0.1096,0.1095,0.1094,0.1093,0,0,0.132,0.129,0.1296,0.1289,0.1269,0.1272,0.1284,0.1278,0.1281,0.1272,0.1281,0.1282,0.126,0.1255,0.1233,0.1246,0.1292,0.122,0.1219,0.1234,0.1331,0.1349,0.1358,0.1275,0.1276,0.1277,0.1332,0,0.1374,0.1392,0.1365,0.1388,0.1393,0.1355,0.1365,0.1354,0.1338,0.134,0.1323,0.1325,0.1295,0.1292,0.1302,0.1284,0.1311,0.128,0.1283,0.1283,0.1288,0.1367,0.1386,0.1438,0.1338,0.1339,0.134,0,0.1439,0.1434,0.1458,0.1437,0.1438,0.1447,0.1441,0.1443,0.143,0.1418,0.1413,0.1387,0.1398,0.1365,0.1379,0.1359,0.1359,0.135,0.1352,0.135,0.1315,0.1368,0.1454,0.1462,0.1351,0.135,0.1349,0,0.1505,0.1503,0.1518,0.1513,0.1489,0.1497,0.1487,0.1473,0.1471,0.1466,0.1465,0.146,0.1458,0.1456,0.143,0.1409,0.1447,0.1413,0.1438,0.1438,0.1447,0.1447,0.1534,0.1447,0.1447,0.1447,0.1447,0,0.1568,0.1584,0.1547,0.1555,0.1573,0.1542,0.156,0.1547,0.1535,0.1541,0.1508,0.1514,0.148,0.1483,0.1463,0.1478,0.1477,0.1468,0.1462,0.1471,0.1472,0.147,0.1466,0.1449,0.1449,0.1448,0.1448,0,0.1643,0.1618,0.1632,0.1608,0.1603,0.1617,0.1597,0.1604,0.1587,0.1595,0.1595,0.1568,0.157,0.1544,0.1541,0.1528,0.1552,0.154,0.1556,0.1552,0.1579,0.1577,0.1668,0.1679,0.1585,0.1586,0.1587,0,0.1685,0.1696,0.1674,0.1676,0.1668,0.1671,0.167,0.164,0.1641,0.1627,0.1637,0.1636,0.1634,0.1639,0.1619,0.1616,0.1604,0.1636,0.1603,0.1612,0.1605,0.1604,0.1606,0.1643,0.1644,0.1645,0.1646,0,0.1762,0.1749,0.1748,0.1744,0.1743,0.1739,0.1731,0.1735,0.1703,0.1705,0.1706,0.1704,0.1702,0.1701,0.1695,0.1686,0.1661,0.1657,0.1662,0.1671,0.168,0.1676,0.1575,0.1655,0.1654,0.1653,0.1653,0.1652,0.1821,0.183,0.1816,0.1817,0.1809,0.1803,0.1809,0.1793,0.1794,0.1789,0.1772,0.1776,0.1764,0.1754,0.1746,0.175,0.1734,0.1742,0.1744,0.1747,0.1752,0.168,0.1749,0.1749,0.1748,0.1748,0.1748,0,0.1896,0.1886,0.1887,0.1878,0.1879,0.1856,0.1847,0.1849,0.1854,0.1844,0.1843,0.1845,0.1845,0.1826,0.1824,0.1831,0.1819,0.1831,0.183,0.1828,0.1766,0.1761,0.184,0.184,0.184,0.184,0.184,0.184,0.1936,0.195,0.1936,0.1946,0.1935,0.1939,0.1937,0.1932,0.1924,0.1928,0.1928,0.1915,0.1902,0.1899,0.1898,0.1892,0.1893,0.1909,0.19,0.1842,0.1833,0.1824,0.182,0.1909,0.191,0.1962,0.1962,0.1962]}]]